Torna al catalogo

STARLINK-34443

AttivoComunicazioniVLEO
NORAD 64296·PAYLOAD·🇺🇸 United States

Lanciato Jun 8, 2025 da Vandenberg Space Force Base

Loading…

Prossimi Passaggi (prossime 24 ore)

TLE

AggiornatoSource: CelesTrak SupGP

Epoca: Sep 15, 2026, 03:40 UTC

1 64296C 25123F   26258.15326389 -.00046810  00000+0 -16283-2 0  2580
2 64296  69.9998  74.9814 0003298 268.4886  62.8294 15.29603001    15

Traccia STARLINK-34443 in tempo reale con AllMySat

Download on the App Store